Flag for Canada Weather past 2 weeks in Moose Jaw, Saskatchewan, Canada

Now
36 °F

Clear.


Feels Like: 32 °F
Forecast: 36 / 63 °F
Wind: 5 mph from Southwest

Location: Regina Weather Station

Current Time: Oct 23, 2014 at 2:49:55 AM

Latest Report: Oct 23, 2014 at 2:00 AM


Visibility: 15 mi

Pressure: 29.83 "Hg

Humidity: 93%

Dew point: 34 °F

Location of Moose JawLocation

Historic Weather in Moose Jaw — Graph

°F

Moose Jaw temperature yesterday

Maximum temperature yesterday: 54 °F (at 4:00 PM)
Minimum temperature yesterday: 39 °F (at 10:00 PM)
Average temperature yesterday: 48 °F

Past Weeks' High & Low Weather Summary

 TemperatureHumidityPressure
High75 °F (Oct 20, 3:00 PM)100% (Oct 9, 2:00 AM)30.35 "Hg (Oct 9, 2:00 AM)
Low25 °F (Oct 9, 2:00 AM)30% (Oct 10, 4:00 PM)29.53 "Hg (Oct 16, 12:00 AM)
Average47 °F73%29.92 "Hg
* Reported Oct 8 1:00 AM — Oct 23 1:00 AM, Moose Jaw, Weather by CustomWeather, © 2014

Note: Actual official high and low records may vary slightly from our data, if they occured in-between our weather recording intervals... More about our weather records

Advertising

Moose Jaw weather history for previous 24 hours

 ConditionsComfort  
Time TempWeatherWind HumidityBarometerVisibility
1:00 AM
Oct 23
36 °FClear.2 mph93%29.83 "Hg15 mi
12:00 AM36 °FClear.9 mph93%29.83 "Hg15 mi
11:00 PM
Oct 22
39 °FClear.5 mph93%29.83 "Hg15 mi
10:00 PM39 °FClear.6 mph100%29.84 "Hg15 mi
9:00 PM43 °FPassing clouds.7 mph93%29.84 "Hg15 mi
8:00 PM46 °FOvercast.5 mph93%29.84 "Hg15 mi
7:00 PM48 °FPassing clouds.3 mph87%29.83 "Hg15 mi
6:00 PM50 °FPartly cloudy.6 mph82%29.80 "Hg15 mi
5:00 PM54 °FScattered clouds.9 mph82%29.79 "Hg15 mi
4:00 PM54 °FBroken clouds.10 mph82%29.79 "Hg15 mi
3:00 PM50 °FMostly cloudy.13 mph94%29.78 "Hg15 mi
2:00 PM50 °FOvercast.17 mph88%29.77 "Hg15 mi
1:00 PM52 °FOvercast.16 mph82%29.75 "Hg15 mi
12:00 PM52 °FOvercast.14 mph82%29.76 "Hg15 mi
11:00 AM50 °FOvercast.17 mph88%29.75 "Hg15 mi
10:47 AM52 °FPartly sunny.14 mph82%29.74 "Hg15 mi
10:00 AM52 °FPartly sunny.14 mph82%29.72 "Hg15 mi
9:00 AM46 °FPassing clouds.9 mph93%29.70 "Hg15 mi
8:00 AM43 °FPassing clouds.9 mph100%29.71 "Hg15 mi
7:00 AM46 °FPassing clouds.12 mph93%29.68 "Hg15 mi
6:00 AM48 °FSprinkles. Overcast.12 mph87%29.65 "Hg15 mi
5:00 AM48 °FSprinkles. Overcast.7 mph82%29.69 "Hg15 mi
4:53 AM48 °FSprinkles. Overcast.8 mph82%29.69 "Hg15 mi
4:00 AM48 °FOvercast.8 mph82%29.63 "Hg15 mi
3:00 AM50 °FPassing clouds.6 mph76%29.61 "Hg15 mi
2:00 AM50 °FPassing clouds.6 mph76%29.60 "Hg15 mi
Weather by CustomWeather, © 2014

See weather overviewHow to use our weather pages